EHI
0 1 2 2 2 1 0 0 0 0 0 0 0 0 0 0 1 2 3 2 1 0 0 0 0 0 1 2 3 3 3 3 2 1 1 1 0 0 0 0 0 0 0
0 0 1 1 1 0 0 0 0 0 0 0 0 0 0 0 1 2 3 2 1 0 0 0 0 0 0 1 2 2 1 2 2 1 1 0 0 0 0 0 0 0 0
0 0 0 0 0 0 0 0 0 0 0 0 0 0 0 0 1 2 2 1 0 0 0 0 0 0 0 0 1 1 0 1 2 1 0 0 0 0 0 0 0 0 0
0 0 0 0 0 0 0 0 0 0 0 0 0 0 0 0 0 1 1 0 0 0 0 0 0 0 0 0 0 0 0 0 1 1 0 0 0 0 0 0 0 0 0
0 0 0 0 0 0 0 0 0 0 0 0 0 0 0 0 0 0 0 0 0 0 0 0 0 0 0 0 0 0 0 0 0 0 0 0 0 0 0 0 0 0 0
0 0 0 0 0 0 0 0 0 0 0 0 0 0 0 0 0 0 0 0 0 0 0 0 0 0 0 0 0 0 0 0 0 0 0 0 0 0 0 0 0 0 0
0 0 0 0 0 0 0 0 0 0 0 0 0 0 0 0 0 0 0 0 0 0 0 0 0 0 0 0 0 0 0 0 0 0 0 0 0 0 0 0 0 0 0
0 0 0 0 0 0 0 0 0 0 0 0 0 0 0 0 0 0 0 0 0 0 0 0 0 0 0 0 0 0 0 0 0 0 0 0 0 0 0 0 0 0 0
0 0 0 0 0 0 0 0 0 0 0 0 0 0 0 0 0 0 0 0 0 0 0 0 0 0 0 0 0 0 0 0 0 0 0 0 0 0 0 0 0 0 0
0 0 0 0 0 0 0 0 0 0 0 0 0 0 0 0 0 0 0 0 0 0 0 0 0 0 0 0 0 0 0 0 0 0 0 0 0 0 0 0 0 0 0
0 0 0 0 0 0 0 0 0 0 0 0 0 0 0 0 0 0 0 0 0 0 0 0 0 0 0 0 0 0 0 0 0 0 0 0 0 0 0 0 0 0 0
0 0 0 0 0 0 0 0 0 0 0 0 0 0 0 0 0 0 0 0 0 0 0 0 0 0 0 0 0 0 0 0 0 0 0 0 0 0 0 0 0 0 0
0 0 0 0 0 0 0 0 0 0 0 0 0 0 0 0 0 0 0 0 0 0 0 0 0 0 0 0 0 0 0 0 0 0 0 0 0 0 0 0 0 0 0
0 0 0 0 0 0 0 0 0 0 0 0 0 0 0 0 0 0 0 0 0 0 0 0 0 0 0 0 0 0 0 0 0 0 0 0 0 0 0 0 0 0 0
0 0 0 0 0 0 0 0 0 0 0 0 0 0 0 0 0 0 0 0 0 0 0 0 0 0 0 0 0 0 0 0 0 0 0 0 0 0 0 0 0 0 0
0 0 0 0 0 0 0 0 0 0 0 0 0 0 0 0 0 0 0 0 0 0 0 0 0 0 0 0 0 0 0 0 0 0 0 0 0 0 0 0 0 0 0
0 0 0 0 0 0 0 0 0 0 0 0 0 0 0 0 0 0 0 0 0 0 0 0 0 0 0 0 0 0 0 0 0 0 0 0 0 0 0 0 0 0 0
0 0 0 0 0 0 0 0 0 0 0 0 0 0 0 0 0 0 0 0 0 0 0 0 0 0 0 0 0 0 0 0 0 0 0 0 0 0 0 0 0 0 0
0 0 0 0 0 0 0 0 0 0 0 0 0 0 0 0 0 0 0 0 0 0 0 0 0 0 0 0 0 0 0 0 0 0 0 0 0 0 0 0 0 0 0
0 0 0 0 0 0 0 0 0 0 0 0 0 0 0 0 0 0 0 0 0 0 0 0 0 0 0 0 0 0 0 0 0 0 0 0 0 0 0 0 0 0 0
0 0 0 0 0 0 0 0 0 0 0 0 0 0 0 0 0 0 0 0 0 0 0 0 0 0 0 0 0 0 0 0 0 0 0 0 0 0 0 0 0 0 0
0 0 0 0 0 0 0 0 0 0 0 0 0 0 0 0 0 0 0 0 0 0 0 0 0 0 0 0 0 0 0 0 0 0 0 0 0 0 0 0 0 0 0
0 0 0 0 0 0 0 0 0 0 0 0 0 0 0 0 0 0 0 0 0 0 0 0 0 0 0 0 0 0 0 0 0 0 0 0 0 0 0 0 0 0 0
0 0 0 0 0 0 0 0 0 0 0 0 0 0 0 0 0 0 0 0 0 0 0 0 0 0 0 0 0 0 0 0 0 0 0 0 0 0 0 0 0 0 0
0 0 0 0 0 0 0 0 0 0 0 0 0 0 0 0 0 0 0 0 0 0 0 0 0 0 0 0 0 0 0 0 0 0 0 0 0 0 0 0 0 0 0
0 0 0 0 0 0 0 0 0 0 0 0 0 0 0 0 0 0 0 0 0 0 0 0 0 0 0 0 0 0 0 0 0 0 0 0 0 0 0 0 0 0 0
Wind_Speed
4 4 4 4 4 4 3 3 3 3 3 3 2 2 2 2 2 1 1 1 1 1 1 1 2 2 2 2 2 2 3 3 4 3 4 6 7 7 6 5 6 5 7
4 4 4 4 4 4 4 4 3 3 3 3 2 2 2 2 2 2 2 2 2 2 1 1 1 1 1 1 2 3 3 4 7 9 6 6 7 7 7 6 5 5 5
3 3 4 4 4 4 4 4 3 3 4 3 3 3 3 3 3 3 3 3 3 3 2 2 2 1 1 2 3 4 4 5 7 9 8 6 5 6 7 7 6 4 5
3 3 4 4 4 4 4 4 4 4 4 4 4 4 4 4 3 4 4 4 4 4 4 4 3 2 2 4 4 6 6 7 8 9 8 7 6 6 5 6 5 4 4
3 4 4 4 4 4 4 4 4 4 4 4 4 4 5 4 5 4 4 4 5 5 6 6 6 7 6 5 5 7 8 8 8 8 8 7 7 6 6 5 6 5 4
3 4 4 4 4 4 4 4 4 5 5 5 5 6 7 6 7 7 4 4 5 6 7 7 7 9 11 11 11 10 8 8 9 8 8 8 8 7 5 5 5 5 4
4 4 4 4 5 4 4 4 5 5 6 6 6 7 8 8 8 7 6 5 6 7 7 6 7 8 9 11 12 12 11 9 6 5 9 8 8 6 5 5 4 3 3
3 4 4 4 4 4 5 5 5 5 6 6 6 7 8 9 9 7 5 7 8 9 8 8 8 9 9 9 11 11 10 8 5 5 7 6 6 5 4 4 5 5 4
4 4 4 4 4 4 5 5 5 5 6 6 6 7 8 8 10 9 5 7 8 10 9 9 9 10 8 6 10 11 10 8 10 11 10 9 8 4 1 2 4 3 4
4 4 4 3 4 5 5 4 4 5 6 6 7 7 7 8 10 10 6 6 8 8 8 9 12 10 8 5 8 9 10 9 8 9 8 7 7 5 1 1 1 1 2
3 4 4 4 4 5 5 4 4 5 6 7 7 7 7 8 9 11 11 5 6 7 7 7 8 9 9 8 6 8 7 6 7 7 7 6 5 4 4 2 1 2 2
4 4 4 4 4 4 4 4 4 4 6 6 6 6 6 6 8 9 11 10 7 7 7 7 7 8 9 9 8 6 2 1 5 5 5 5 4 4 3 2 2 2 2
4 5 5 5 4 4 4 4 4 3 4 4 5 5 5 5 6 7 8 8 8 6 7 9 7 6 7 8 6 1 1 3 4 4 4 4 3 3 1 2 2 2 3
5 5 4 5 5 5 2 3 3 3 3 4 4 5 4 4 5 4 4 5 6 6 6 6 4 3 4 5 4 2 2 4 3 3 3 3 2 2 1 1 1 2 3
5 5 5 5 5 4 5 5 4 6 5 4 3 3 3 4 6 8 5 4 3 4 2 4 4 5 5 4 3 3 3 3 2 2 2 1 1 1 1 1 2 3 3
5 4 4 4 4 4 5 6 8 6 6 6 7 5 6 7 4 5 5 5 4 4 2 3 3 3 3 3 3 3 2 2 2 1 1 0 0 1 1 1 2 3 3
5 4 3 4 4 4 4 5 5 5 4 4 4 5 5 4 3 2 2 2 3 4 2 3 2 2 2 2 2 2 2 2 1 0 0 1 1 2 2 3 3 3 4
5 4 3 3 3 3 3 3 3 4 5 5 5 3 2 1 1 1 2 4 4 4 2 2 2 2 1 1 1 1 1 1 1 1 1 1 2 3 3 3 3 4 5
4 3 3 2 3 3 3 2 3 3 3 4 4 6 5 5 5 4 5 5 1 2 2 2 1 1 1 1 1 1 1 1 1 2 2 3 3 4 4 4 4 3 6
3 3 2 2 3 3 3 3 3 3 3 3 3 3 5 5 5 5 4 3 2 1 1 1 1 1 1 2 2 2 3 3 3 3 3 3 4 4 5 6 6 6 6
5 6 6 4 3 3 2 2 2 2 2 3 2 3 1 3 3 3 3 2 2 2 2 2 2 3 3 3 3 3 3 3 3 3 4 4 5 5 5 6 6 7 7
4 4 5 4 3 3 2 2 2 2 3 3 3 6 5 5 3 3 3 2 2 2 2 3 3 3 3 3 3 4 4 4 4 4 4 5 5 5 6 7 7 7 8
4 4 4 4 3 4 4 4 3 3 3 3 3 3 5 4 3 3 3 3 3 3 3 4 5 5 3 3 4 5 5 4 4 4 5 6 6 6 6 7 9 10 9
5 5 5 4 4 4 5 4 4 4 4 3 3 3 3 3 4 4 4 4 4 4 5 5 5 6 7 6 6 6 5 4 6 6 8 8 9 8 8 8 9 11 10
5 5 5 4 4 4 4 4 4 4 4 4 4 4 5 5 5 5 5 5 6 6 7 7 6 7 9 10 9 7 1 1 4 7 8 9 10 10 10 11 10 11 11
6 6 5 5 5 5 5 5 5 5 5 5 5 5 6 6 6 6 6 6 6 6 7 7 8 9 10 9 9 6 3 4 5 6 8 9 10 10 11 10 13 12 13
Wind_Direction
47 43 37 36 35 31 27 24 19 11 6 1 356 349 358 19 29 33 34 41 26 354 310 277 274 276 261 240 212 199 187 159 139 117 106 115 114 113 110 100 103 104 109
46 43 42 36 35 31 30 25 20 15 11 12 12 20 27 37 40 45 43 43 43 33 14 1 339 282 250 215 162 155 152 149 141 131 124 120 114 117 111 107 108 111 113
48 46 43 34 36 33 28 24 22 22 24 25 25 35 41 43 49 50 47 48 46 47 41 38 28 42 106 113 124 127 128 126 126 128 124 119 113 118 118 112 112 115 125
51 48 45 37 35 35 34 35 31 31 35 38 39 43 48 48 52 59 65 62 61 60 55 49 48 65 94 113 114 119 120 119 121 122 121 121 121 126 129 132 131 140 141
61 56 49 44 45 42 42 44 42 39 44 52 52 52 49 47 37 42 71 74 72 70 67 64 64 66 61 80 107 119 125 125 125 124 126 129 132 143 143 145 136 140 142
67 61 49 45 51 50 47 49 51 50 48 54 53 51 48 45 27 16 27 79 79 79 80 83 87 85 80 80 82 88 104 124 129 131 134 136 141 145 144 151 147 151 149
70 59 52 53 54 49 45 49 53 55 57 55 54 58 56 46 34 25 20 70 78 76 78 82 86 92 100 103 98 94 85 81 101 125 129 135 139 146 151 148 146 145 118
78 67 62 58 58 58 54 53 52 55 58 59 57 60 62 49 31 26 30 78 78 76 74 77 85 90 90 104 107 103 100 91 88 97 107 117 123 132 149 145 145 151 154
82 73 72 71 70 67 69 61 57 62 65 66 62 61 63 52 27 16 24 87 82 75 71 69 81 89 67 85 106 105 101 97 81 79 82 89 91 92 55 169 160 168 153
85 83 81 84 81 74 72 66 68 69 69 70 64 58 59 53 29 17 11 89 89 87 82 77 64 69 57 58 106 110 109 109 114 115 113 124 127 126 149 282 208 182 159
96 94 84 84 88 87 82 76 78 81 80 76 72 65 60 53 47 31 20 60 84 91 89 84 73 59 59 52 73 91 97 114 125 128 129 131 136 143 154 140 352 332 350
109 101 93 90 90 96 95 89 86 89 93 88 85 80 73 63 52 45 37 34 35 84 85 88 85 75 70 64 75 77 73 147 123 121 119 120 123 119 107 93 51 3 342
105 97 96 96 91 95 103 107 106 100 95 97 95 86 83 86 81 67 58 51 43 68 76 76 91 111 114 100 94 85 221 129 109 110 107 102 93 84 116 161 180 210 232
112 107 103 102 99 90 83 90 93 92 94 97 91 91 92 97 91 93 104 110 116 112 112 118 123 90 97 101 134 153 103 67 64 88 93 101 114 152 197 203 224 224 233
115 113 110 108 101 97 78 47 46 59 40 35 64 86 90 85 51 21 9 46 58 78 121 145 142 137 134 126 116 105 117 134 128 115 122 149 168 190 196 226 280 274 273
124 121 118 120 122 122 117 105 60 54 59 49 29 24 68 66 53 37 35 26 16 343 293 136 129 125 120 119 126 134 139 122 111 118 140 186 244 266 257 247 256 275 289
125 127 133 133 135 134 126 123 123 115 90 76 64 50 54 64 57 39 21 339 296 287 232 126 118 114 116 122 123 117 106 96 59 286 258 270 275 277 274 275 282 289 292
134 131 147 140 137 135 133 134 133 133 136 133 133 127 125 114 99 278 280 269 207 210 179 132 136 139 148 149 139 125 138 172 209 246 260 273 281 284 286 285 286 295 300
155 148 147 132 144 145 162 167 141 128 125 128 136 146 173 189 208 237 255 257 228 160 147 143 151 171 193 213 234 227 250 259 275 283 277 277 279 282 286 288 290 285 275
148 118 176 184 171 173 180 170 158 152 148 146 156 149 159 192 199 187 211 241 240 194 193 195 197 230 234 235 227 224 226 232 237 248 259 268 273 281 284 284 289 289 286
162 154 186 211 186 183 183 173 172 186 175 171 160 105 358 239 206 202 210 214 233 228 218 234 228 223 224 229 242 247 253 254 257 267 272 274 277 279 283 283 281 283 289
176 179 187 189 184 188 196 205 200 195 187 195 179 154 178 243 238 217 213 211 217 228 237 252 253 245 253 263 256 251 256 261 264 270 277 278 275 276 279 282 286 291 292
195 189 188 189 192 178 214 219 214 208 205 207 206 193 186 213 225 230 231 231 237 240 241 238 251 256 248 244 260 269 272 274 278 285 283 283 283 281 280 283 285 287 288
198 202 200 198 202 207 215 218 222 221 219 219 221 222 220 218 235 243 248 245 241 241 242 244 251 259 261 259 257 256 259 277 285 276 278 283 285 286 286 285 285 288 291
207 208 212 215 219 221 224 226 226 228 228 231 231 231 231 231 233 236 239 241 244 247 249 250 250 250 252 254 258 264 272 244 269 285 279 274 276 280 283 284 285 287 289
219 218 223 226 229 233 234 235 237 240 239 237 239 241 246 248 247 247 245 245 248 247 248 249 249 253 255 254 254 251 214 221 234 247 267 271 273 275 280 282 286 287 288